Wind_Speed
75 86 86 83 84 86 87 87 86 85 84 85 86 84 82 81 80 80 80 79 76 72 69 69 70 71 69 66 66 65 64 63 60 58 55 52 52 54 55 56 55 55 55 54 53 53 51 48 46 47 48 47 47 48 48 48 47 46 47 48 47 45 43 43 43 44 44 44 44 45 45 46 45 45 46 47 47 47 47 48 49 49 49 49 50 50
71 82 87 85 86 89 90 90 90 90 88 86 86 84 83 81 80 81 82 81 79 75 72 71 71 71 70 67 67 65 62 62 60 58 57 54 52 52 53 53 51 50 49 48 48 48 47 47 46 47 49 49 49 49 49 48 48 48 50 50 48 46 45 45 45 46 47 46 46 47 48 48 48 47 48 48 48 49 49 51 52 52 52 52 52 52
69 78 88 89 89 90 91 92 92 92 92 89 87 85 83 82 81 82 81 80 79 76 74 73 71 71 70 67 66 65 63 62 61 58 56 55 54 55 57 56 52 49 47 46 47 48 48 49 50 50 50 50 50 49 50 51 51 52 53 52 49 47 47 48 48 48 49 49 49 49 49 50 50 50 49 49 49 49 51 53 55 55 55 55 54 54
69 75 88 93 92 90 89 91 93 93 93 91 89 87 84 82 82 82 81 81 79 77 75 73 72 71 70 67 64 64 64 65 64 62 59 57 56 57 60 60 59 56 53 52 52 53 54 55 55 55 55 54 53 53 54 55 55 55 55 53 51 50 50 50 50 50 51 51 51 51 51 52 52 52 51 51 51 51 53 55 56 57 58 58 58 57
72 76 88 96 96 93 89 89 91 92 92 92 91 89 86 84 83 82 83 83 81 79 77 75 73 71 70 68 65 65 65 66 66 64 64 63 62 62 62 62 62 61 59 58 57 57 57 58 58 58 58 58 58 58 59 58 57 57 56 55 53 53 52 52 51 51 52 53 53 53 53 54 54 54 54 54 53 54 56 57 57 58 59 60 61 60
76 79 88 96 100 96 91 90 91 91 92 93 92 91 89 88 86 84 84 84 83 81 79 78 75 73 73 71 69 68 67 66 66 64 64 66 67 67 66 66 66 65 63 61 60 59 59 59 60 60 60 60 60 60 60 59 58 58 57 57 56 55 54 54 54 53 53 54 54 54 55 56 56 56 56 56 57 58 59 59 59 59 61 62 63 63
79 81 87 96 101 99 93 90 90 91 92 92 92 93 92 91 90 87 85 85 84 82 81 81 77 75 76 74 72 72 69 69 69 66 65 67 67 67 66 67 68 67 66 64 63 61 60 61 61 61 61 61 61 61 59 59 59 58 58 58 58 57 56 56 56 56 55 55 55 56 56 57 57 57 58 58 59 60 61 61 61 62 62 64 65 65
81 82 86 94 101 102 95 90 88 89 91 90 91 94 95 94 93 90 88 87 85 83 83 82 78 76 76 75 74 73 72 72 73 71 70 70 69 67 67 67 67 67 67 66 65 64 63 63 62 62 62 62 62 61 60 59 59 59 59 59 59 59 59 58 58 58 57 57 57 58 58 59 60 60 60 59 60 62 63 64 64 64 65 66 67 67
84 85 87 93 101 102 97 92 89 88 89 90 90 93 95 96 96 94 92 90 87 85 83 81 79 76 76 77 76 74 73 73 74 75 76 75 73 71 70 70 69 67 67 66 67 66 64 64 64 63 63 63 62 61 60 59 59 59 60 60 61 61 61 60 60 59 59 59 60 60 61 62 62 62 62 62 62 64 65 66 67 67 68 69 70 70
89 89 90 95 101 103 100 96 93 88 88 91 90 89 92 96 96 96 94 93 91 88 84 82 80 77 77 79 79 76 75 74 75 77 78 77 77 75 73 73 71 69 67 66 66 66 65 64 64 64 63 63 62 61 60 60 60 60 61 61 62 62 62 61 60 61 62 62 63 63 64 64 65 65 65 65 66 67 68 69 70 70 71 72 73 73
91 92 92 95 100 105 104 99 95 90 88 92 92 87 88 93 96 96 95 95 93 90 86 83 81 79 76 78 79 77 76 77 77 78 79 78 78 77 76 75 74 73 70 66 64 63 62 63 63 62 62 63 63 61 61 61 61 61 61 61 62 62 62 61 62 63 65 66 66 66 66 67 68 68 69 69 70 70 71 72 73 73 74 75 75 75
90 92 92 94 99 106 107 101 96 92 88 91 93 89 86 89 95 97 95 95 93 88 86 84 83 80 76 75 78 78 77 78 79 79 78 78 77 77 76 76 76 76 74 71 66 63 60 60 60 61 62 63 62 62 62 62 62 62 62 62 62 63 64 65 66 66 67 68 68 69 69 70 71 71 72 73 73 74 74 75 75 76 76 77 78 78
90 92 91 94 99 105 108 104 98 94 89 88 92 91 87 86 91 96 96 94 91 87 86 85 84 81 75 74 77 79 78 78 78 78 77 77 77 77 77 77 77 76 76 75 73 71 68 66 66 66 66 66 66 67 67 67 67 66 66 66 67 69 70 71 71 70 69 70 70 71 72 73 73 74 75 76 77 77 77 77 78 78 79 79 80 80
91 93 92 94 99 104 108 104 99 94 89 87 89 91 89 85 84 89 93 93 90 88 87 86 84 80 75 75 77 79 79 79 77 77 78 78 78 78 78 78 78 78 77 77 77 77 76 75 74 73 74 74 74 74 74 73 72 71 70 70 72 73 74 74 74 73 72 72 73 74 74 75 76 77 77 78 79 80 80 80 81 81 81 81 82 82
92 93 92 94 98 102 105 104 100 96 92 90 90 91 92 89 82 81 87 91 91 90 90 88 85 79 75 76 78 80 81 79 78 79 80 80 80 79 79 80 80 80 79 79 79 79 79 78 77 76 76 77 77 77 76 76 75 73 72 72 74 75 75 75 75 74 74 74 75 76 76 77 78 79 80 81 82 82 82 83 83 83 83 83 84 85
93 93 93 95 97 100 103 103 102 100 95 91 91 92 92 92 88 82 82 88 92 92 92 90 85 79 77 78 80 81 81 80 80 80 82 82 82 81 81 81 81 81 80 80 80 80 79 79 78 78 77 78 78 78 78 77 76 74 74 75 75 76 76 76 76 76 76 77 78 78 79 80 81 82 83 84 84 85 85 85 86 85 85 86 86 87
92 93 93 96 98 99 101 101 101 101 97 91 90 91 91 93 93 87 83 86 92 93 91 88 85 82 81 82 82 81 81 82 83 83 84 84 84 83 83 82 82 81 81 81 81 81 81 80 80 80 80 80 80 80 79 79 77 77 77 77 77 77 78 78 78 79 80 80 81 82 83 83 84 85 85 86 87 87 88 88 88 88 88 88 88 89
91 91 93 95 97 99 100 101 101 102 100 94 90 91 94 96 96 93 88 85 87 91 90 88 86 85 85 84 84 83 83 85 86 87 86 86 85 85 84 83 83 82 82 82 83 83 83 83 82 82 82 82 82 81 80 79 79 80 80 80 80 80 80 81 82 83 84 84 85 86 86 87 87 88 88 89 89 89 90 90 91 91 91 91 91 91
92 92 93 95 97 98 100 101 101 102 101 97 93 94 95 95 95 96 93 88 85 87 89 89 88 87 86 85 85 86 86 87 88 88 88 87 86 86 85 85 84 84 84 84 84 85 85 85 85 85 84 83 83 82 81 81 81 81 81 81 82 82 83 85 86 87 88 88 89 89 89 90 90 91 91 91 91 92 92 93 93 93 93 93 93 94
92 93 94 95 97 98 98 98 98 98 99 98 96 95 94 92 92 94 95 92 89 87 87 89 90 88 86 86 87 87 87 88 88 88 88 88 87 87 87 86 86 86 87 86 86 86 86 87 87 86 85 84 83 82 82 82 82 83 84 85 86 87 88 88 89 90 91 91 92 92 92 93 93 94 94 94 94 94 94 95 95 95 96 96 96 96
92 93 93 94 96 97 97 95 94 94 97 98 97 97 96 94 91 92 94 93 91 90 88 88 88 87 87 88 89 88 88 88 89 89 89 89 88 88 88 88 87 88 88 88 88 88 88 88 87 86 85 85 84 84 84 85 86 87 88 89 90 91 91 92 92 93 93 93 94 94 95 95 96 96 96 96 96 96 96 96 97 97 98 98 98 99
90 91 92 93 94 94 94 93 92 93 96 98 99 99 99 98 94 92 93 93 92 90 89 87 84 82 85 89 90 90 90 90 90 90 90 90 90 90 90 89 89 89 89 88 88 89 89 89 88 88 87 86 86 87 88 89 90 91 92 93 93 94 94 94 95 95 96 96 96 96 97 97 98 98 98 98 98 98 98 99 99 99 100 100 100 101
89 90 91 91 91 92 93 93 92 92 94 97 99 100 100 100 95 90 89 91 93 92 89 86 83 80 84 88 90 91 91 92 92 92 92 92 92 92 92 92 92 91 91 90 90 90 90 90 91 90 90 90 90 91 92 93 94 95 95 96 96 96 96 97 97 98 98 98 99 99 100 100 100 100 100 100 100 100 100 100 101 101 102 102 102 103
89 90 90 90 90 91 92 92 92 92 93 94 96 98 100 99 97 93 89 89 92 92 90 86 80 77 80 85 88 90 91 93 95 96 96 96 96 96 96 96 95 95 94 93 93 93 93 93 94 94 94 95 95 96 97 97 98 98 98 98 98 98 98 99 99 100 100 101 101 102 102 102 102 101 101 102 102 101 102 102 102 103 103 103 104 104
88 89 89 89 90 91 91 91 90 89 88 89 92 96 99 100 100 98 94 91 90 90 91 88 79 74 76 81 86 89 91 92 95 96 98 98 98 99 99 99 99 98 97 97 96 96 97 97 97 98 98 99 99 100 100 100 100 100 100 100 100 100 101 101 101 102 102 103 103 103 103 102 102 102 102 102 102 102 102 102 103 103 104 105 105 106
88 88 88 88 88 88 86 84 82 81 82 84 87 91 94 97 99 100 100 98 92 88 89 87 81 76 76 79 84 88 89 90 93 95 97 98 99 100 100 100 99 99 99 99 99 100 100 100 101 101 102 102 102 102 102 102 102 102 102 102 102 102 102 102 103 103 103 103 102 102 101 101 101 101 101 101 102 102 103 104 104 105 106 107 108 109
89 89 88 88 87 85 83 81 82 83 85 85 86 89 92 96 99 103 105 102 96 91 88 83 80 78 77 79 83 86 86 87 90 93 95 97 98 98 98 98 98 98 99 100 101 101 102 103 103 103 104 104 104 104 103 103 103 103 103 102 102 102 102 103 102 102 102 101 101 101 101 101 102 102 103 103 104 105 106 106 107 108 109 110 111 112
87 88 87 86 86 86 86 86 87 89 89 88 88 91 94 97 101 104 104 101 99 95 88 83 81 80 78 80 83 84 84 86 88 90 93 95 96 97 97 97 98 99 100 101 102 103 103 103 104 104 104 104 104 104 104 104 104 104 104 104 104 104 104 104 103 103 103 103 103 103 104 104 105 105 106 106 107 108 108 109 110 111 112 113 113 113
85 84 84 86 86 86 86 86 87 88 88 89 89 90 92 96 99 100 99 96 97 95 89 86 87 84 81 81 82 83 84 84 84 86 87 89 91 95 98 100 101 101 102 102 103 103 103 103 103 104 104 104 104 104 105 105 105 105 105 105 105 105 105 106 106 106 106 106 106 106 106 107 107 108 108 109 109 110 111 112 112 113 113 113 113 112
84 83 84 85 86 86 86 86 86 87 87 87 87 88 89 91 92 91 90 90 93 93 90 90 90 87 84 83 84 86 87 86 85 85 85 85 85 88 92 96 99 101 102 103 103 103 104 104 104 104 104 104 104 104 104 104 104 104 104 105 105 106 107 107 107 107 107 107 108 108 108 109 109 110 110 111 111 112 112 112 112 111 111 111 111 112
83 84 84 85 86 86 86 85 85 86 86 86 86 87 87 85 83 81 81 86 90 89 86 88 90 88 85 84 85 88 91 92 92 90 89 88 87 86 87 89 91 93 95 97 98 99 101 102 103 103 103 103 103 103 103 103 103 103 104 104 105 105 106 106 106 106 106 106 107 107 108 108 109 109 109 109 109 109 109 109 109 110 110 111 112 112
84 85 85 86 87 86 85 86 86 86 87 87 86 83 79 77 75 75 78 84 87 85 82 85 88 86 83 83 86 92 95 96 96 95 94 93 92 92 91 90 90 90 90 90 91 92 94 95 96 97 97 98 98 98 99 99 100 100 100 101 101 102 102 102 103 103 103 104 105 105 106 106 106 107 107 107 108 108 109 109 110 111 112 113 113 114
86 86 85 86 87 86 86 87 86 88 89 86 79 72 69 70 72 76 79 82 83 84 85 87 87 85 82 83 88 93 96 97 97 97 98 98 97 96 95 94 94 93 93 93 93 93 93 93 94 95 95 95 95 96 96 97 98 98 99 100 100 100 101 102 102 103 103 104 105 105 105 106 106 107 107 108 109 109 110 111 111 112 113 114 115 115
89 88 87 87 86 85 86 87 89 91 89 79 69 65 67 71 76 79 80 81 82 85 86 86 86 84 82 82 84 87 91 95 98 98 99 100 101 100 99 97 96 96 97 98 98 97 96 96 97 97 97 97 97 97 97 98 99 100 100 101 101 102 102 103 104 104 104 105 105 105 106 106 106 107 108 109 109 110 111 112 112 113 114 115 115 116
90 90 89 88 87 85 85 88 90 88 80 71 68 70 74 77 79 80 80 80 82 84 83 82 81 81 80 80 80 81 84 91 98 101 101 102 103 102 101 100 99 99 100 99 99 98 97 97 98 98 99 99 99 99 99 99 100 100 101 101 101 102 103 103 104 105 105 105 106 106 107 107 108 109 110 111 111 112 113 113 114 115 116 117 117 118
89 89 89 89 87 85 85 86 84 77 70 69 72 75 78 80 80 79 79 79 81 82 81 80 79 79 81 82 81 82 85 91 99 103 102 102 102 101 99 99 100 100 100 99 99 99 99 99 99 99 100 100 100 99 99 99 99 99 100 101 102 102 103 104 105 105 106 107 107 108 109 110 110 111 112 113 113 114 115 115 116 117 117 118 119 119
90 90 89 88 86 84 83 83 80 75 74 74 74 74 77 79 79 81 82 82 82 84 83 80 78 79 82 83 84 85 88 92 97 99 98 98 98 99 101 102 102 101 101 101 101 101 100 100 99 99 99 99 99 99 99 99 99 99 100 101 102 103 104 104 105 106 107 107 108 109 110 110 111 112 113 113 114 115 115 116 117 117 118 118 118 119
93 92 91 90 88 86 85 84 83 81 77 72 71 72 75 78 81 85 87 84 81 82 81 79 78 79 82 84 86 88 90 93 93 91 93 98 100 100 102 103 103 103 103 102 102 102 102 101 101 101 100 100 101 101 101 101 101 101 102 103 104 104 105 106 107 107 108 109 109 110 111 111 112 112 113 114 114 115 116 116 116 117 117 117 118 118
95 95 94 94 91 89 88 87 86 82 74 69 69 73 78 81 83 88 90 83 77 78 80 79 78 80 83 86 88 90 91 91 87 86 91 98 101 100 98 98 99 100 101 102 102 103 103 104 104 104 104 104 105 105 105 106 106 106 107 107 107 108 108 109 109 110 110 111 111 112 112 112 113 113 114 114 115 116 116 116 117 117 117 117 117 118
97 96 96 95 93 91 90 89 86 81 76 73 75 79 82 83 86 90 88 78 73 76 80 81 82 84 86 89 89 89 89 86 84 86 91 95 97 96 95 95 95 97 97 98 100 100 101 103 103 104 105 106 107 108 109 109 109 110 110 110 110 110 110 111 111 111 112 112 112 112 113 113 113 114 114 114 115 115 115 116 116 116 117 117 118 118
99 98 98 96 94 94 93 91 88 84 79 77 79 82 85 87 89 89 83 77 77 80 82 86 88 88 88 89 89 87 86 85 85 86 88 91 92 93 93 93 94 95 96 97 98 99 100 102 103 104 105 106 107 108 108 109 109 109 109 109 109 109 109 110 110 110 110 110 111 111 111 111 112 112 113 113 114 114 115 115 116 117 118 118 119 120
99 99 99 98 97 96 94 93 91 85 81 80 82 84 87 88 88 84 81 82 86 86 86 89 91 89 89 88 87 86 85 85 84 84 86 88 89 90 92 93 93 94 95 97 98 99 100 101 102 103 103 104 105 105 106 106 107 107 107 108 108 108 108 108 108 109 109 109 110 110 110 111 111 112 113 113 114 115 116 116 117 118 118 118 119 119
96 97 97 97 96 96 96 95 91 83 78 79 82 84 86 86 85 85 87 90 91 90 89 90 90 90 89 88 87 86 85 84 85 85 86 87 88 89 91 92 92 93 94 95 96 97 98 98 99 100 100 101 102 102 103 103 104 104 105 105 106 107 107 107 107 108 108 109 109 110 110 111 112 112 113 114 114 115 115 115 116 116 116 117 117 118
97 97 96 93 92 92 92 88 83 78 77 82 86 88 89 88 88 90 92 92 92 92 91 91 90 91 89 88 88 88 87 86 87 87 87 88 88 88 89 90 91 92 92 93 94 94 95 96 97 97 98 98 99 99 100 100 101 102 103 103 104 104 105 105 106 106 107 108 108 109 110 110 111 112 112 113 113 113 114 114 115 115 116 117 117 118
97 96 95 94 93 92 88 81 75 73 76 81 85 89 91 91 92 94 94 95 95 94 93 92 92 92 90 89 89 89 90 90 89 88 89 88 88 88 88 89 90 91 91 92 93 93 94 95 96 96 97 97 97 97 98 99 100 101 102 102 103 103 104 105 105 106 107 107 108 109 109 110 110 111 111 112 113 113 114 115 115 116 116 116 115 115
96 96 97 98 98 97 93 87 81 79 78 78 80 84 86 87 89 91 92 93 94 94 93 92 92 92 92 91 90 91 91 91 90 90 89 88 87 87 88 89 90 91 92 93 93 93 94 94 95 95 96 96 97 98 99 100 100 101 102 102 103 104 105 105 106 106 107 107 108 108 109 109 110 111 111 112 112 113 113 113 113 112 111 111 111 111
95 96 98 99 99 98 94 90 87 87 88 87 87 88 89 89 88 89 90 89 88 88 88 88 89 90 90 90 89 89 90 91 91 90 89 88 88 89 89 90 91 92 93 93 94 94 94 94 95 95 96 97 98 98 99 100 101 102 103 103 104 105 105 106 107 107 107 108 108 109 109 110 110 110 110 110 110 110 109 108 107 107 106 106 107 107
92 94 97 98 98 96 93 90 91 93 93 93 93 94 95 95 94 94 93 91 89 88 86 86 86 87 87 88 89 89 90 90 90 90 90 90 91 91 91 91 91 92 93 94 94 95 95 95 96 96 96 97 97 98 99 100 101 102 103 104 105 106 106 107 107 108 108 109 109 109 108 108 108 107 107 107 106 105 104 103 103 102 103 103 103 104
89 92 94 94 95 94 92 90 91 92 93 92 93 93 95 96 96 95 94 92 90 90 88 87 87 88 89 90 91 91 90 91 91 91 92 92 92 92 92 92 93 94 94 94 95 95 96 96 96 97 97 97 97 97 98 99 100 101 102 103 104 104 105 106 106 107 107 107 107 106 106 105 105 104 104 103 102 101 100 100 100 100 100 101 102 102
89 89 89 90 92 90 88 87 89 91 92 91 92 93 94 95 95 95 94 93 92 92 92 92 92 92 92 92 92 92 92 92 92 93 93 93 93 93 93 94 95 95 96 96 96 96 96 96 97 97 97 97 97 98 98 99 100 100 101 102 102 103 103 104 104 105 105 105 105 105 105 104 104 103 102 101 100 99 99 99 99 100 100 101 102 102
89 89 89 90 90 88 87 88 91 93 93 92 92 93 94 94 94 94 94 94 94 94 95 95 95 94 94 94 94 94 94 94 93 93 93 93 93 94 95 96 96 96 96 95 94 93 93 94 95 96 97 97 97 98 98 99 99 100 100 101 102 102 103 103 104 104 105 105 105 105 105 104 104 103 102 101 101 100 100 101 101 101 102 102 103 103
Wind_Direction
221 218 217 218 220 221 222 223 224 224 226 229 231 230 230 229 229 230 230 231 232 231 231 231 233 235 236 235 237 239 242 245 246 247 246 246 249 254 257 259 261 263 264 265 266 267 268 269 270 272 274 276 278 279 280 282 283 286 289 292 295 295 295 295 296 298 300 302 301 301 304 307 308 308 307 308 307 308 309 311 311 313 315 317 318 318
224 219 217 218 219 220 221 223 224 224 226 229 230 230 230 229 229 230 231 232 233 233 232 232 234 236 237 236 237 240 242 246 247 247 247 247 249 253 258 261 262 263 264 263 263 263 264 266 268 271 272 274 276 277 279 280 282 285 288 291 293 292 292 293 294 296 298 299 298 299 302 304 306 306 306 305 305 305 306 308 309 311 312 314 316 317
227 220 218 218 219 219 221 223 224 225 226 228 230 230 229 229 229 230 231 233 234 235 235 235 236 237 238 237 238 240 242 244 244 244 246 247 248 250 253 256 258 260 260 259 259 260 262 265 268 270 271 273 274 276 277 279 282 285 288 290 289 289 290 291 292 294 296 296 296 298 300 302 304 304 304 303 303 303 304 305 307 309 310 312 313 315
231 223 219 218 218 219 221 223 224 225 226 227 230 231 229 228 228 229 230 232 233 234 235 236 236 238 239 239 239 240 242 243 244 243 244 245 247 249 251 253 255 257 258 258 259 261 263 265 267 269 270 272 273 273 275 278 281 285 287 287 286 287 288 289 290 292 294 295 295 297 298 299 301 302 302 301 301 301 302 303 305 306 308 310 311 313
233 227 221 218 218 218 221 223 224 225 226 227 229 231 230 229 228 228 229 231 232 233 234 235 235 237 238 239 239 240 241 243 244 245 246 246 247 249 252 253 253 256 258 260 262 263 265 266 267 269 270 271 271 272 274 277 280 283 284 284 285 286 286 287 288 290 292 292 294 295 296 297 299 300 300 300 300 300 300 302 303 304 306 308 309 311
235 230 223 219 217 218 220 222 223 224 225 227 228 230 231 230 228 228 229 230 231 232 234 235 235 236 238 238 238 239 240 242 244 245 246 248 248 249 252 254 255 256 259 261 262 263 265 266 268 269 270 271 272 273 274 276 279 280 282 283 284 284 284 285 286 288 290 291 292 294 295 296 297 297 298 298 299 299 300 301 301 302 304 305 307 308
236 232 225 220 218 218 219 222 222 223 225 226 228 230 231 231 229 228 229 230 231 232 233 235 235 235 238 239 239 239 240 242 244 244 245 247 247 249 251 253 255 256 258 259 261 263 264 267 268 269 270 271 272 273 274 275 277 279 281 282 282 282 282 283 284 286 288 289 291 292 293 294 294 294 296 297 297 297 298 300 300 301 302 303 305 306
237 234 227 221 219 218 219 221 222 223 225 226 227 230 231 231 230 229 228 229 230 231 232 234 235 235 238 240 240 241 241 242 245 246 246 247 248 249 250 252 254 255 256 257 259 261 264 266 267 268 270 270 271 272 272 274 276 279 280 280 279 279 280 281 283 286 287 288 289 290 291 292 292 293 294 294 295 295 296 298 299 300 300 301 303 304
239 235 229 223 220 218 218 220 222 223 224 225 226 229 230 231 231 230 229 230 230 231 232 234 235 236 238 241 241 242 242 243 245 246 247 248 249 250 250 252 253 254 256 257 258 261 263 264 267 268 269 269 269 270 271 273 277 279 279 278 278 278 278 280 282 284 285 286 287 289 290 291 291 291 291 292 292 292 294 296 297 298 299 300 301 303
238 234 228 223 220 218 218 219 221 222 223 224 224 227 230 231 232 232 231 231 231 231 232 233 235 235 237 241 242 243 243 244 244 247 248 249 250 251 251 252 252 254 256 258 260 261 262 264 266 267 267 266 267 268 270 273 277 278 278 277 276 276 277 279 281 283 284 285 286 288 289 289 290 290 290 290 290 291 293 295 296 298 298 299 300 302
237 233 227 223 220 219 218 218 220 221 222 224 224 225 229 231 232 233 233 233 233 233 233 234 235 236 236 240 243 244 244 244 245 246 248 250 251 251 252 253 253 254 256 257 259 260 261 262 264 264 264 265 265 267 269 273 276 277 276 275 275 276 277 279 281 282 283 284 286 287 287 288 288 289 289 290 290 291 293 294 296 297 298 298 299 300
237 234 228 223 221 219 219 219 219 220 222 224 225 224 228 232 233 233 234 234 235 235 235 235 236 236 236 239 243 244 243 244 245 246 248 249 251 251 252 253 254 255 256 256 257 257 257 258 260 262 263 264 265 266 269 272 274 275 275 275 275 276 277 278 280 282 283 284 285 286 287 287 287 288 289 290 291 292 293 294 295 296 297 297 298 298
237 234 228 224 222 220 220 220 219 220 222 224 226 225 227 231 234 235 235 235 236 236 236 236 236 236 236 237 241 244 244 244 245 247 248 249 250 251 252 253 254 255 255 256 256 257 257 257 258 261 263 265 266 268 270 273 273 273 273 274 275 276 277 279 280 280 281 283 284 284 285 285 286 287 289 290 291 291 292 293 294 295 295 296 297 297
234 232 228 224 222 221 221 221 220 221 222 224 226 227 227 229 234 237 237 237 236 235 235 235 236 236 235 235 239 242 243 244 245 247 248 248 249 250 251 253 254 254 255 256 257 258 259 260 261 262 264 265 267 269 271 272 273 273 273 274 276 278 279 279 279 280 280 281 281 282 283 284 285 286 287 288 289 290 291 292 292 293 294 295 295 296
229 228 226 224 223 222 222 222 221 221 222 223 225 226 226 227 231 235 237 236 235 234 234 234 235 235 234 235 236 239 241 243 244 245 247 248 249 250 251 252 253 255 256 257 258 259 260 261 262 263 264 265 267 268 270 271 272 273 274 275 277 279 279 279 279 279 279 279 280 281 282 283 284 285 286 287 288 289 290 290 291 292 293 293 294 295
226 224 223 222 223 224 223 223 222 221 222 223 224 226 227 227 229 232 235 236 235 234 233 234 234 234 233 234 235 237 240 243 243 244 246 248 249 249 250 251 253 255 256 257 258 259 260 262 263 264 264 265 266 267 269 270 271 272 273 276 278 279 279 279 279 279 279 279 279 280 281 282 283 284 285 286 287 288 289 289 290 291 292 292 293 294
224 223 223 222 222 223 224 223 223 222 222 223 224 225 227 228 228 230 233 236 237 236 235 235 235 234 233 234 236 238 240 243 245 245 246 247 248 249 250 251 252 254 256 258 259 260 260 261 262 263 264 265 266 267 269 269 270 271 273 275 277 277 277 277 278 278 278 279 280 280 281 282 283 284 285 286 287 288 288 289 290 291 291 292 293 294
222 222 223 223 222 224 224 224 223 222 221 222 223 224 226 228 228 229 231 234 237 238 237 236 236 235 234 235 237 239 241 243 245 246 246 246 248 249 250 252 253 254 256 257 259 260 261 261 262 263 264 265 266 267 267 268 269 271 273 275 276 276 276 276 277 277 278 279 279 280 281 282 283 284 285 286 287 288 289 289 290 291 291 292 293 294
219 220 221 222 223 224 225 225 224 223 222 222 222 223 225 227 229 230 231 232 235 238 238 238 237 236 236 237 238 240 241 242 244 245 246 247 248 249 251 252 253 254 255 257 258 259 260 261 262 263 264 264 265 265 266 267 268 270 272 273 274 275 275 276 276 277 278 279 279 280 281 282 284 285 286 287 287 288 289 290 290 291 291 292 293 293
219 219 221 222 223 224 226 226 226 225 224 223 224 225 226 228 230 232 232 233 235 237 238 239 239 238 238 238 239 240 241 242 243 244 246 247 248 249 251 252 253 254 255 256 257 258 259 260 261 262 263 263 263 263 264 265 266 268 269 271 272 273 274 275 276 277 278 279 280 281 282 283 284 285 286 287 288 289 289 290 290 290 291 291 292 293
219 220 221 223 224 224 226 227 227 227 226 226 225 225 226 228 229 231 232 233 235 236 238 240 241 241 241 240 240 241 241 242 242 243 245 246 248 249 251 252 253 254 255 255 256 257 258 259 260 261 261 262 262 262 263 264 265 267 269 270 272 273 274 275 276 277 278 279 280 281 282 283 283 284 285 286 287 288 289 289 289 290 290 291 291 292
219 221 222 223 225 226 227 228 228 228 228 227 226 225 226 227 228 229 230 231 233 235 236 238 239 241 242 242 242 242 241 242 242 243 244 245 247 248 250 251 252 253 254 254 255 255 256 257 258 259 260 261 262 262 263 265 266 268 269 271 272 273 274 275 276 277 278 279 280 281 282 283 284 284 285 286 287 288 288 288 289 289 290 290 291 292
220 222 223 224 226 227 228 228 229 230 229 229 228 227 227 228 229 230 230 231 233 234 235 237 238 239 242 244 244 244 243 243 243 243 244 245 246 248 249 250 251 252 253 254 255 256 256 257 258 259 261 261 262 263 265 266 268 269 271 272 274 275 276 277 277 278 279 280 281 282 283 283 284 285 286 287 287 288 288 289 289 289 290 290 291 292
220 222 223 224 226 227 228 229 230 231 230 230 230 230 229 230 231 231 231 232 232 233 234 236 237 238 241 244 246 246 246 245 245 245 245 246 247 248 249 250 252 253 254 255 256 257 258 259 260 261 262 263 264 265 266 268 269 271 272 273 275 276 277 277 278 279 280 281 281 282 283 284 284 285 286 287 287 288 288 288 289 289 289 290 290 291
222 223 224 225 226 227 229 230 232 233 233 233 233 233 232 232 232 233 233 233 232 232 233 235 235 235 237 240 243 245 245 245 246 246 247 248 249 250 251 252 253 255 256 257 258 259 260 261 262 263 263 264 265 266 268 269 270 272 273 274 275 276 277 277 278 279 279 280 281 282 283 284 285 285 286 286 286 287 287 287 287 287 288 288 288 289
222 223 224 226 227 229 231 233 235 237 238 237 236 236 236 236 235 235 235 234 233 232 233 233 233 234 235 237 241 243 244 245 247 248 248 249 250 252 253 255 256 257 258 259 260 260 261 262 263 263 264 265 266 267 269 270 272 273 274 275 275 276 277 278 278 279 280 281 281 282 283 283 283 284 284 284 284 284 284 285 285 285 286 286 287 288
222 223 224 225 227 228 230 232 233 234 235 235 234 235 236 236 236 236 235 235 234 234 233 233 234 235 236 238 240 243 244 245 247 248 250 251 252 254 255 256 257 258 259 259 260 260 261 262 263 264 265 266 267 268 269 271 272 273 273 274 275 276 277 277 278 279 279 280 280 280 281 281 281 281 281 281 282 282 283 283 284 284 285 286 287 288
223 223 224 226 227 227 228 229 231 233 233 233 233 234 234 235 235 235 235 236 236 235 234 235 237 237 237 239 240 242 244 245 246 248 249 251 252 253 254 255 256 256 257 258 258 259 260 261 262 263 264 265 267 268 269 270 271 271 272 273 274 274 275 276 276 277 277 277 278 278 278 278 279 279 280 281 281 282 282 283 284 285 285 286 287 288
224 225 225 227 228 228 229 230 232 234 235 235 236 236 236 237 237 237 237 238 240 239 238 240 240 238 239 242 242 243 245 246 247 247 248 249 250 251 252 253 254 255 256 257 259 260 261 262 263 264 265 266 267 267 268 269 270 270 271 272 273 273 274 274 275 275 276 276 277 277 277 278 279 279 280 281 281 282 283 283 284 285 286 287 287 288
225 225 226 228 228 229 230 231 232 234 236 236 237 238 239 239 239 240 241 242 242 242 242 244 243 241 242 245 245 245 246 247 247 247 248 249 249 250 252 253 254 255 256 257 258 259 261 262 263 264 265 266 266 267 268 268 269 270 271 272 272 273 273 274 274 275 275 276 276 277 278 278 279 279 280 281 281 282 283 284 284 285 286 287 287 288
226 226 227 228 229 229 230 231 233 235 236 237 238 239 240 241 242 243 244 244 244 244 245 247 246 246 247 248 248 248 248 247 247 248 249 250 251 252 252 253 254 255 256 257 258 259 260 261 262 263 264 265 266 266 267 268 269 270 270 271 271 272 272 273 274 274 275 276 276 277 277 278 279 279 280 281 282 282 283 284 284 285 286 286 286 287
227 228 229 230 230 231 231 232 234 236 237 238 239 240 243 245 246 246 245 245 245 245 247 247 247 248 251 252 251 249 248 248 249 249 250 251 252 253 254 255 256 257 258 259 259 260 260 261 261 262 263 264 265 266 267 267 268 269 269 270 271 271 272 273 274 275 275 276 276 277 278 278 279 280 280 281 281 282 283 283 284 284 285 285 286 286
227 228 229 231 232 232 233 234 235 237 238 239 240 243 246 247 247 246 245 245 246 246 246 246 246 248 250 253 254 252 251 251 252 252 252 252 253 254 256 258 259 260 260 260 261 261 261 262 263 263 264 265 265 266 267 268 268 269 269 270 271 272 273 274 274 275 275 276 276 277 277 278 278 279 280 280 281 282 282 283 283 284 284 284 285 285
226 227 228 231 232 232 233 235 235 237 238 239 242 244 245 246 246 246 245 245 246 245 245 246 247 248 251 254 256 257 256 255 255 255 255 254 254 254 256 257 259 260 260 261 262 263 264 264 265 266 266 267 267 268 268 269 269 270 271 271 272 272 273 273 274 274 274 275 275 276 276 277 278 279 279 280 280 281 281 282 282 283 284 284 284 285
226 227 228 230 232 232 233 235 236 237 239 240 242 243 244 245 246 246 247 247 248 248 248 248 249 251 254 255 257 258 257 256 255 255 256 257 256 256 257 258 259 260 261 262 263 264 265 265 266 267 267 268 268 269 269 270 271 271 272 272 272 272 272 273 273 274 274 275 275 276 277 277 278 279 279 280 280 281 281 282 282 283 283 284 284 285
229 230 230 232 233 234 235 236 238 239 240 240 240 242 244 246 248 250 251 251 252 251 250 250 251 252 253 254 255 256 257 256 255 255 257 258 259 260 260 260 260 260 261 262 263 264 265 266 267 267 268 269 269 270 270 270 271 271 272 272 272 273 273 274 274 275 275 276 277 277 278 278 279 280 280 281 281 282 282 283 283 283 284 284 285 285
230 232 233 234 236 236 237 238 239 239 238 239 241 244 247 250 251 252 251 251 252 252 252 252 252 254 255 255 256 256 257 257 256 257 258 260 260 260 260 260 260 261 261 262 263 264 265 266 266 267 268 269 269 269 270 270 270 270 271 271 272 272 273 274 274 275 276 277 277 278 278 279 280 280 281 281 282 282 283 283 284 284 285 285 286 287
231 232 234 235 237 237 237 238 239 239 239 242 245 246 249 250 251 252 251 250 252 255 256 256 256 257 258 257 256 256 255 255 256 258 259 260 260 260 261 262 262 263 263 263 264 264 264 264 264 265 266 267 267 268 268 269 269 269 270 270 271 272 273 273 274 275 276 276 277 278 279 279 280 280 281 282 282 283 283 284 284 285 285 286 286 287
232 233 235 236 237 237 238 238 240 240 241 243 245 246 248 249 250 252 252 252 254 258 259 259 258 258 258 257 256 255 255 255 256 257 258 259 260 261 263 264 265 265 265 265 265 265 265 265 265 265 265 266 266 267 267 268 268 269 270 270 271 272 273 274 274 275 276 277 277 278 279 279 280 280 281 281 282 283 283 284 284 285 285 286 286 286
233 235 236 237 238 239 240 240 241 242 242 243 245 247 249 250 251 253 255 256 258 260 261 260 258 257 256 256 256 256 257 257 257 257 258 260 262 263 264 265 265 266 267 267 267 267 267 267 267 267 267 267 268 268 269 270 270 271 272 273 273 274 274 275 276 276 277 278 278 279 279 280 281 281 282 282 283 283 284 284 285 285 285 286 286 286
234 236 237 238 239 240 241 242 243 244 244 245 246 247 249 250 252 255 259 259 257 256 257 257 257 256 257 258 259 260 261 260 259 259 260 262 263 264 264 265 265 266 267 267 268 268 269 269 270 270 270 271 271 272 272 273 274 274 275 275 276 276 277 277 278 278 279 279 280 280 281 281 282 282 283 283 284 284 284 285 285 285 285 286 286 286
236 237 238 239 240 241 242 243 244 244 245 246 247 249 251 253 255 258 258 256 254 253 254 256 258 259 260 261 262 263 264 264 264 263 264 264 264 265 265 265 266 266 267 268 269 270 270 271 272 272 273 273 273 274 274 275 275 276 276 277 277 278 278 279 279 279 280 280 281 281 281 282 282 283 283 284 284 284 285 285 285 286 286 286 286 287
237 238 239 240 241 242 243 244 245 246 247 248 248 249 251 252 254 254 253 252 253 254 255 257 259 261 262 263 264 265 266 266 267 267 267 267 267 267 267 267 267 268 268 268 269 270 271 271 272 272 273 273 273 274 275 275 276 276 277 277 277 278 278 278 279 279 279 280 280 281 281 282 282 283 283 284 284 285 285 286 286 286 287 287 287 287
237 239 240 241 242 244 244 246 247 246 246 246 247 248 248 249 250 251 252 254 255 257 258 259 260 262 263 264 265 266 266 266 267 267 268 269 270 270 269 269 269 269 269 269 270 270 270 271 271 272 272 273 274 274 275 276 276 276 276 277 277 277 278 278 278 279 279 280 280 281 282 282 283 284 284 285 285 286 286 286 287 287 287 287 287 287
239 240 241 242 243 244 245 245 246 245 244 245 247 249 250 251 252 254 255 257 258 259 260 261 261 262 263 264 264 265 266 266 267 269 270 271 271 271 271 271 271 270 271 271 271 271 271 271 272 272 273 274 275 276 276 277 277 277 277 278 278 278 279 279 279 280 280 281 282 282 283 283 284 284 285 285 286 286 286 287 287 287 287 287 287 286
240 240 241 242 243 244 244 245 245 246 246 246 248 250 252 253 254 255 256 258 259 260 261 261 261 262 262 263 264 265 266 267 269 270 271 271 271 271 271 271 271 271 271 272 272 272 272 273 273 274 275 276 276 277 277 277 278 278 278 279 279 279 280 280 281 281 282 282 282 283 283 284 284 285 285 286 286 286 286 286 286 286 286 286 286 286
241 242 243 244 245 246 246 247 248 249 249 248 249 250 251 253 254 256 257 258 259 259 259 260 260 261 263 264 264 265 266 268 269 270 270 271 271 272 272 272 272 272 272 273 273 274 274 275 276 276 277 277 277 278 278 278 278 278 279 279 280 280 281 281 282 282 282 283 283 283 284 284 284 285 285 286 286 286 286 286 285 285 285 285 286 286
244 244 245 245 246 247 248 248 249 250 251 251 252 253 254 255 256 257 257 257 258 258 258 258 259 261 262 264 265 266 267 268 269 270 270 271 272 273 273 273 273 273 274 274 275 275 276 276 277 277 278 278 278 278 278 278 278 279 279 280 281 281 282 282 282 283 283 284 284 284 285 285 285 286 286 286 286 286 286 286 286 286 287 287 287 287
246 246 247 248 248 249 249 250 251 253 253 254 254 255 255 255 255 255 254 255 256 256 257 258 259 261 263 265 266 267 267 268 269 269 270 271 272 273 273 273 274 275 275 276 276 276 277 277 278 278 278 278 278 278 278 279 280 280 281 282 282 282 283 283 284 284 285 285 285 285 286 286 287 287 287 287 287 287 287 287 288 288 288 288 288 288
246 247 249 250 250 251 251 252 252 253 253 253 253 253 254 254 254 255 255 255 255 256 258 260 261 263 264 265 266 266 267 268 268 269 270 270 271 271 272 273 274 275 276 276 277 277 277 277 277 277 277 278 278 279 280 281 281 282 283 283 283 284 284 285 285 285 285 286 286 286 287 287 287 287 287 288 288 288 288 288 288 288 288 288 289 289
248 249 249 251 251 251 251 251 251 251 252 253 253 254 255 255 256 257 257 257 257 258 259 261 262 263 264 265 265 266 267 267 267 268 269 269 270 271 272 273 274 275 276 276 277 277 277 277 277 278 278 279 280 281 281 282 282 283 283 284 284 284 285 285 285 286 286 286 287 287 287 287 288 288 288 289 289 289 289 289 289 289 289 289 289 289
Height
10724 10728 10737 10744 10747 10747 10747 10750 10753 10756 10757 10759 10764 10771 10776 10781 10786 10789 10790 10793 10797 10804 10809 10812 10812 10812 10818 10825 10828 10831 10834 10835 10837 10838 10838 10838 10839 10840 10841 10843 10845 10845 10846 10849 10849 10846 10847 10848 10848 10848 10847 10848 10848 10847 10847 10847 10847 10847 10846 10845 10845 10845 10843 10843 10842 10841 10840 10839 10838 10837 10836 10836 10835 10834 10833 10831 10830 10829 10827 10825 10824 10822 10821 10819 10818 10816
10718 10726 10734 10736 10736 10736 10737 10740 10743 10746 10749 10752 10757 10765 10770 10776 10780 10782 10784 10787 10792 10799 10803 10805 10807 10808 10813 10820 10823 10827 10830 10830 10830 10831 10833 10834 10836 10837 10837 10837 10839 10840 10842 10844 10843 10843 10843 10843 10844 10844 10843 10844 10844 10844 10843 10842 10843 10843 10842 10842 10842 10841 10839 10839 10838 10837 10836 10836 10834 10833 10832 10831 10830 10829 10829 10828 10826 10825 10823 10821 10819 10818 10817 10816 10814 10812
10715 10723 10726 10725 10726 10727 10729 10733 10736 10739 10744 10748 10752 10758 10765 10771 10774 10776 10780 10784 10788 10794 10798 10801 10804 10805 10807 10814 10819 10824 10825 10823 10823 10826 10828 10831 10832 10832 10831 10831 10834 10836 10838 10838 10838 10838 10839 10838 10839 10839 10839 10839 10840 10840 10839 10838 10839 10839 10838 10839 10838 10837 10836 10835 10834 10833 10832 10831 10830 10829 10828 10826 10825 10824 10824 10823 10822 10821 10818 10816 10814 10812 10811 10810 10810 10808
10708 10714 10713 10713 10716 10719 10723 10726 10729 10733 10739 10744 10748 10753 10760 10764 10767 10772 10775 10778 10782 10787 10791 10795 10799 10799 10803 10810 10816 10819 10819 10815 10817 10822 10824 10826 10827 10826 10825 10827 10829 10830 10832 10833 10833 10833 10834 10834 10834 10834 10835 10836 10836 10836 10834 10835 10835 10835 10834 10834 10834 10833 10832 10831 10830 10829 10828 10826 10825 10824 10823 10821 10819 10819 10818 10818 10818 10817 10814 10812 10810 10807 10805 10804 10804 10803
10698 10699 10697 10701 10706 10710 10715 10718 10723 10728 10734 10739 10743 10747 10753 10756 10760 10765 10767 10770 10774 10780 10784 10788 10792 10795 10798 10805 10810 10811 10812 10811 10813 10817 10819 10820 10820 10819 10820 10822 10823 10824 10825 10827 10828 10828 10828 10829 10829 10829 10830 10831 10831 10831 10831 10832 10832 10831 10830 10830 10830 10829 10828 10827 10827 10826 10824 10822 10821 10820 10818 10816 10814 10812 10811 10812 10812 10811 10809 10808 10806 10803 10801 10799 10798 10798
10686 10685 10686 10692 10698 10702 10706 10710 10716 10721 10727 10732 10737 10741 10745 10748 10752 10756 10758 10762 10767 10774 10779 10781 10787 10792 10792 10798 10803 10803 10807 10808 10808 10812 10814 10813 10814 10815 10816 10816 10816 10819 10820 10821 10822 10823 10823 10823 10823 10824 10825 10825 10825 10826 10827 10828 10827 10827 10826 10825 10825 10824 10823 10823 10822 10822 10820 10819 10817 10816 10814 10812 10810 10807 10806 10806 10805 10804 10803 10802 10801 10799 10797 10794 10793 10792
10675 10675 10679 10686 10691 10696 10700 10704 10710 10715 10719 10725 10730 10733 10735 10739 10744 10748 10751 10754 10760 10768 10771 10773 10782 10787 10786 10791 10796 10798 10804 10804 10803 10807 10808 10806 10808 10810 10810 10810 10811 10813 10815 10816 10817 10818 10818 10817 10818 10818 10819 10820 10820 10821 10823 10822 10822 10822 10822 10821 10820 10819 10818 10817 10817 10816 10815 10814 10813 10812 10810 10808 10806 10803 10802 10801 10799 10797 10796 10796 10795 10794 10792 10789 10788 10787
10669 10668 10673 10678 10683 10688 10695 10701 10705 10709 10714 10720 10723 10723 10727 10731 10735 10740 10743 10746 10753 10759 10762 10767 10777 10782 10783 10786 10790 10793 10798 10799 10798 10801 10801 10800 10802 10804 10804 10804 10805 10807 10809 10811 10812 10813 10813 10812 10813 10812 10813 10814 10815 10816 10818 10817 10816 10817 10817 10816 10815 10814 10812 10811 10811 10811 10810 10809 10807 10807 10805 10803 10801 10799 10797 10796 10794 10791 10790 10789 10788 10788 10786 10784 10782 10781
10659 10659 10665 10670 10674 10682 10690 10693 10696 10701 10707 10712 10713 10715 10719 10723 10726 10732 10735 10739 10745 10750 10756 10764 10771 10778 10780 10780 10783 10788 10792 10794 10795 10793 10792 10794 10797 10799 10799 10798 10799 10801 10803 10806 10807 10808 10808 10807 10807 10807 10808 10809 10809 10811 10812 10812 10812 10812 10811 10811 10810 10808 10807 10807 10806 10805 10804 10803 10802 10801 10799 10797 10795 10794 10793 10791 10789 10786 10785 10784 10782 10781 10779 10777 10775 10775
10644 10648 10654 10658 10665 10674 10679 10681 10686 10693 10699 10702 10704 10708 10712 10715 10719 10724 10729 10733 10737 10742 10752 10759 10764 10772 10776 10773 10775 10783 10786 10788 10788 10785 10785 10788 10790 10792 10792 10792 10794 10795 10797 10799 10801 10803 10803 10802 10801 10801 10802 10803 10803 10805 10806 10806 10806 10806 10806 10805 10804 10803 10802 10802 10801 10800 10798 10797 10797 10795 10793 10792 10789 10788 10786 10785 10783 10781 10779 10777 10776 10775 10772 10770 10768 10767
10635 10639 10644 10651 10660 10666 10667 10671 10678 10686 10690 10691 10696 10702 10705 10708 10712 10716 10722 10725 10729 10738 10748 10753 10757 10765 10771 10770 10770 10776 10779 10779 10779 10779 10779 10781 10783 10785 10786 10787 10788 10789 10792 10793 10795 10797 10797 10796 10795 10795 10796 10796 10797 10799 10799 10800 10799 10800 10800 10799 10798 10797 10796 10796 10795 10794 10792 10791 10790 10788 10787 10785 10783 10780 10779 10778 10776 10774 10772 10770 10768 10767 10765 10763 10761 10759
10630 10633 10642 10651 10655 10657 10660 10666 10672 10678 10683 10685 10690 10697 10700 10702 10704 10708 10714 10718 10725 10738 10744 10746 10750 10756 10767 10770 10763 10767 10772 10769 10770 10772 10773 10775 10777 10778 10780 10781 10782 10784 10786 10788 10789 10790 10791 10791 10790 10789 10790 10790 10791 10792 10793 10793 10794 10793 10793 10793 10792 10791 10790 10790 10788 10787 10785 10784 10783 10781 10779 10777 10775 10773 10771 10769 10768 10766 10765 10763 10761 10760 10758 10756 10754 10752
10626 10629 10638 10645 10647 10650 10655 10660 10666 10672 10678 10681 10685 10692 10695 10697 10699 10702 10709 10714 10724 10734 10736 10738 10743 10750 10764 10766 10757 10758 10762 10761 10763 10766 10768 10769 10770 10771 10772 10774 10775 10777 10780 10781 10782 10783 10784 10785 10785 10785 10785 10784 10784 10784 10785 10786 10787 10788 10787 10787 10786 10784 10784 10784 10782 10781 10779 10778 10776 10774 10772 10770 10768 10766 10763 10762 10760 10758 10758 10756 10754 10753 10751 10749 10747 10745
10617 10621 10630 10636 10639 10644 10648 10655 10662 10669 10674 10677 10681 10686 10690 10694 10696 10699 10704 10711 10720 10726 10727 10729 10734 10744 10757 10758 10752 10751 10751 10753 10759 10760 10760 10762 10763 10764 10766 10767 10768 10770 10772 10774 10775 10776 10777 10779 10780 10780 10780 10779 10778 10778 10778 10779 10779 10780 10780 10780 10779 10778 10778 10777 10776 10775 10774 10772 10770 10768 10766 10764 10762 10760 10757 10755 10753 10752 10751 10749 10748 10746 10744 10742 10740 10738
10607 10614 10624 10631 10634 10638 10643 10649 10654 10660 10664 10667 10672 10676 10681 10687 10691 10692 10695 10701 10709 10714 10715 10718 10726 10740 10750 10750 10746 10743 10742 10747 10753 10753 10752 10753 10756 10758 10759 10760 10760 10762 10764 10766 10767 10768 10770 10771 10773 10774 10774 10774 10773 10772 10772 10772 10772 10772 10772 10772 10772 10771 10770 10770 10769 10768 10767 10766 10764 10762 10760 10758 10756 10754 10752 10750 10747 10746 10744 10743 10741 10740 10738 10736 10733 10731
10600 10607 10614 10619 10624 10628 10633 10638 10643 10648 10653 10659 10664 10669 10676 10681 10683 10684 10686 10691 10696 10700 10705 10713 10725 10737 10742 10740 10737 10736 10738 10741 10744 10745 10745 10746 10748 10751 10752 10753 10753 10755 10757 10758 10760 10761 10763 10764 10765 10766 10767 10767 10766 10766 10765 10765 10765 10765 10766 10765 10765 10763 10762 10761 10760 10760 10759 10758 10756 10755 10754 10752 10750 10748 10746 10743 10741 10739 10737 10735 10734 10733 10731 10729 10726 10724
10597 10602 10605 10609 10614 10616 10620 10627 10632 10638 10645 10653 10659 10666 10672 10672 10672 10677 10682 10684 10687 10693 10702 10712 10722 10730 10731 10731 10731 10732 10735 10734 10734 10737 10737 10738 10740 10742 10743 10745 10747 10749 10750 10750 10752 10753 10755 10757 10758 10759 10759 10759 10759 10758 10758 10757 10757 10758 10758 10758 10758 10757 10755 10753 10752 10751 10750 10748 10748 10747 10745 10744 10743 10741 10739 10736 10734 10732 10730 10727 10726 10724 10723 10721 10719 10716
10589 10594 10598 10602 10606 10608 10611 10616 10620 10627 10635 10643 10651 10656 10657 10657 10662 10670 10675 10678 10682 10688 10698 10706 10714 10719 10722 10725 10727 10727 10729 10727 10725 10727 10729 10731 10733 10733 10735 10738 10740 10742 10743 10743 10744 10745 10747 10748 10750 10751 10751 10751 10751 10751 10751 10751 10750 10750 10750 10749 10749 10748 10746 10745 10744 10742 10741 10740 10739 10738 10736 10735 10734 10733 10731 10728 10726 10724 10722 10719 10718 10716 10714 10712 10710 10708
10577 10582 10585 10589 10595 10600 10603 10607 10613 10621 10629 10636 10641 10644 10645 10650 10659 10664 10668 10674 10678 10683 10690 10697 10703 10709 10715 10720 10720 10718 10720 10719 10719 10719 10721 10724 10726 10726 10728 10730 10732 10733 10734 10736 10737 10737 10738 10739 10740 10742 10743 10744 10744 10744 10745 10744 10744 10743 10742 10741 10739 10738 10737 10735 10734 10733 10732 10731 10730 10729 10728 10727 10726 10723 10721 10719 10718 10716 10714 10711 10709 10706 10704 10702 10700 10698
10568 10572 10576 10580 10585 10588 10592 10599 10609 10618 10625 10630 10634 10637 10642 10650 10656 10658 10663 10670 10673 10676 10683 10688 10693 10702 10710 10711 10710 10710 10712 10712 10712 10713 10714 10716 10718 10719 10720 10721 10723 10724 10725 10728 10729 10729 10729 10730 10731 10733 10734 10735 10736 10737 10737 10737 10737 10736 10734 10733 10731 10730 10729 10727 10726 10724 10723 10722 10721 10721 10719 10718 10716 10714 10712 10710 10708 10707 10705 10703 10700 10697 10695 10692 10690 10688
10560 10565 10570 10573 10576 10581 10587 10597 10606 10610 10613 10618 10624 10630 10636 10642 10646 10650 10655 10662 10666 10671 10677 10681 10687 10697 10702 10701 10701 10704 10705 10704 10705 10707 10707 10708 10710 10711 10711 10712 10714 10715 10716 10719 10720 10721 10722 10722 10723 10724 10725 10726 10727 10728 10729 10728 10728 10727 10725 10724 10723 10722 10721 10719 10718 10717 10716 10715 10714 10712 10711 10709 10707 10705 10703 10702 10700 10699 10697 10695 10692 10689 10687 10684 10682 10679
10554 10559 10564 10567 10572 10579 10586 10592 10596 10598 10602 10608 10614 10620 10625 10629 10634 10639 10645 10654 10659 10662 10668 10673 10682 10691 10691 10690 10692 10695 10696 10697 10698 10699 10700 10700 10701 10702 10702 10703 10704 10705 10707 10709 10711 10713 10714 10714 10715 10716 10717 10718 10718 10718 10719 10718 10718 10717 10716 10715 10714 10714 10713 10712 10711 10709 10708 10707 10706 10704 10702 10700 10699 10697 10695 10693 10692 10690 10688 10686 10683 10681 10678 10676 10673 10670
10548 10552 10557 10561 10567 10572 10576 10581 10585 10589 10595 10600 10607 10615 10618 10623 10630 10636 10643 10648 10650 10653 10661 10667 10678 10687 10683 10680 10684 10687 10689 10692 10691 10691 10692 10692 10693 10693 10693 10693 10694 10696 10698 10700 10702 10704 10706 10707 10708 10709 10709 10710 10710 10709 10708 10708 10707 10707 10707 10706 10706 10705 10704 10703 10702 10700 10699 10698 10696 10695 10693 10691 10689 10688 10686 10684 10682 10680 10678 10676 10674 10671 10668 10666 10663 10660
10540 10543 10548 10554 10559 10563 10567 10572 10576 10581 10588 10596 10605 10611 10613 10619 10625 10629 10634 10637 10638 10647 10656 10662 10676 10686 10678 10673 10677 10679 10681 10683 10682 10682 10683 10683 10684 10683 10683 10685 10686 10688 10691 10693 10695 10697 10697 10699 10700 10700 10701 10700 10700 10699 10698 10698 10698 10698 10698 10698 10698 10697 10696 10695 10693 10692 10690 10688 10686 10685 10683 10682 10680 10678 10677 10674 10672 10670 10668 10666 10663 10661 10658 10655 10652 10650
10534 10536 10542 10547 10550 10554 10560 10566 10572 10581 10590 10598 10604 10606 10608 10612 10615 10618 10624 10625 10629 10641 10649 10656 10674 10680 10667 10663 10667 10666 10668 10671 10671 10672 10673 10674 10674 10673 10675 10678 10680 10683 10686 10687 10688 10688 10689 10690 10690 10690 10690 10690 10690 10689 10689 10689 10690 10690 10690 10690 10689 10688 10687 10686 10684 10683 10681 10679 10677 10676 10674 10673 10671 10669 10668 10665 10663 10661 10658 10656 10653 10650 10648 10645 10642 10639
10523 10528 10535 10539 10544 10552 10561 10570 10579 10585 10588 10591 10594 10596 10598 10599 10601 10606 10608 10611 10623 10635 10640 10652 10666 10664 10655 10656 10658 10655 10658 10662 10662 10663 10664 10664 10665 10666 10669 10672 10675 10678 10680 10679 10679 10680 10680 10680 10679 10679 10679 10679 10680 10680 10680 10680 10681 10682 10681 10680 10680 10678 10677 10676 10674 10673 10671 10670 10669 10667 10665 10664 10662 10660 10658 10656 10653 10651 10648 10645 10642 10640 10637 10634 10631 10629
10512 10519 10526 10532 10540 10549 10556 10562 10566 10564 10563 10569 10575 10577 10578 10579 10584 10586 10589 10601 10617 10624 10632 10647 10654 10650 10649 10653 10651 10648 10650 10654 10654 10655 10656 10656 10658 10661 10664 10667 10669 10670 10669 10667 10667 10667 10668 10668 10667 10668 10668 10669 10670 10671 10672 10672 10672 10672 10671 10670 10669 10668 10666 10665 10663 10662 10661 10660 10658 10657 10655 10653 10651 10649 10647 10645 10643 10640 10637 10634 10632 10629 10626 10623 10621 10618
10507 10516 10524 10528 10534 10539 10543 10546 10547 10545 10549 10556 10560 10560 10563 10566 10570 10574 10585 10601 10610 10616 10633 10643 10640 10642 10647 10645 10643 10642 10642 10644 10645 10646 10647 10648 10651 10653 10655 10656 10656 10655 10654 10653 10653 10654 10656 10657 10658 10659 10659 10660 10662 10662 10663 10662 10662 10661 10660 10659 10658 10657 10655 10653 10652 10651 10650 10649 10647 10645 10644 10642 10640 10638 10635 10634 10632 10629 10626 10623 10621 10618 10615 10612 10610 10607
10505 10514 10520 10521 10525 10531 10535 10538 10540 10541 10545 10549 10552 10555 10559 10562 10567 10577 10593 10604 10606 10617 10632 10630 10626 10637 10641 10635 10635 10635 10632 10633 10634 10635 10637 10639 10639 10641 10642 10643 10643 10643 10644 10644 10644 10646 10647 10649 10650 10650 10651 10652 10653 10653 10653 10652 10651 10651 10650 10649 10647 10646 10644 10642 10641 10640 10639 10638 10636 10634 10632 10630 10629 10627 10624 10622 10620 10618 10615 10612 10609 10607 10604 10601 10599 10596
10501 10507 10510 10512 10518 10523 10527 10530 10533 10534 10537 10543 10548 10551 10554 10559 10570 10584 10596 10602 10603 10613 10620 10616 10618 10630 10630 10626 10626 10623 10620 10622 10623 10625 10628 10628 10629 10631 10633 10634 10633 10634 10635 10636 10637 10639 10640 10640 10640 10641 10642 10643 10643 10643 10642 10641 10641 10640 10640 10638 10637 10635 10634 10632 10631 10630 10629 10627 10626 10624 10622 10620 10618 10616 10613 10611 10609 10606 10604 10601 10598 10596 10593 10590 10587 10584
10495 10499 10503 10506 10509 10513 10519 10524 10526 10527 10531 10536 10539 10542 10549 10560 10574 10586 10594 10593 10594 10604 10608 10605 10609 10617 10617 10614 10611 10608 10609 10611 10612 10615 10617 10618 10621 10624 10624 10624 10624 10625 10627 10628 10630 10631 10631 10631 10631 10632 10632 10632 10632 10631 10631 10631 10631 10630 10629 10627 10626 10625 10623 10622 10621 10620 10619 10617 10615 10613 10611 10609 10607 10604 10602 10599 10597 10595 10592 10589 10587 10584 10581 10578 10574 10571
10488 10491 10496 10498 10500 10507 10514 10516 10518 10521 10522 10523 10530 10543 10555 10566 10575 10582 10583 10580 10584 10595 10595 10593 10602 10610 10604 10595 10592 10596 10601 10601 10601 10605 10609 10612 10615 10615 10615 10615 10616 10618 10619 10620 10621 10621 10620 10620 10621 10621 10620 10621 10621 10622 10622 10622 10621 10619 10618 10616 10616 10615 10613 10612 10611 10609 10608 10606 10604 10602 10599 10597 10595 10593 10590 10588 10585 10583 10580 10578 10575 10572 10569 10565 10562 10559
10477 10482 10488 10489 10493 10502 10506 10507 10511 10510 10507 10516 10538 10554 10560 10564 10568 10568 10567 10570 10577 10581 10581 10586 10596 10597 10587 10580 10581 10587 10592 10593 10594 10598 10602 10605 10606 10606 10606 10606 10606 10608 10609 10608 10608 10608 10609 10610 10609 10610 10611 10611 10613 10613 10612 10611 10609 10608 10607 10606 10606 10605 10603 10601 10599 10598 10596 10594 10591 10590 10587 10585 10583 10581 10579 10576 10574 10571 10568 10566 10563 10559 10556 10553 10549 10546
10464 10472 10478 10479 10484 10492 10495 10497 10497 10493 10501 10528 10549 10553 10551 10554 10554 10552 10556 10563 10564 10565 10571 10579 10584 10583 10580 10579 10577 10577 10582 10585 10587 10589 10590 10592 10593 10594 10595 10596 10596 10596 10596 10596 10597 10598 10600 10601 10600 10600 10601 10601 10602 10602 10601 10599 10597 10596 10596 10596 10595 10593 10591 10589 10587 10585 10583 10581 10579 10577 10576 10574 10572 10569 10567 10564 10562 10559 10556 10553 10551 10547 10544 10540 10536 10533
10457 10463 10469 10471 10476 10483 10486 10484 10482 10491 10517 10541 10545 10540 10540 10541 10539 10541 10549 10553 10552 10557 10566 10573 10577 10577 10574 10571 10567 10567 10570 10573 10576 10578 10577 10578 10580 10581 10583 10586 10587 10586 10586 10586 10587 10588 10590 10591 10589 10589 10589 10589 10590 10590 10589 10588 10586 10584 10584 10582 10581 10579 10577 10576 10574 10572 10570 10569 10567 10565 10563 10562 10559 10556 10554 10551 10549 10546 10543 10541 10538 10534 10531 10528 10524 10521
10457 10461 10465 10467 10470 10476 10478 10477 10484 10504 10524 10531 10529 10530 10531 10530 10532 10537 10542 10545 10546 10550 10556 10562 10568 10565 10558 10555 10556 10556 10557 10561 10566 10570 10570 10569 10568 10568 10571 10575 10575 10576 10577 10577 10577 10578 10580 10580 10580 10578 10578 10578 10578 10577 10577 10576 10575 10573 10570 10568 10567 10565 10563 10562 10560 10559 10557 10556 10554 10552 10550 10548 10546 10543 10541 10538 10536 10533 10530 10527 10524 10521 10518 10515 10511 10508
10453 10456 10459 10462 10466 10473 10475 10479 10489 10502 10511 10516 10523 10528 10526 10525 10528 10527 10527 10533 10537 10538 10544 10552 10556 10551 10545 10545 10547 10547 10548 10552 10557 10564 10564 10557 10552 10552 10557 10561 10563 10565 10568 10569 10569 10570 10571 10571 10570 10568 10567 10566 10565 10564 10563 10563 10562 10561 10558 10556 10555 10553 10551 10550 10549 10547 10545 10544 10541 10539 10537 10535 10533 10531 10528 10525 10523 10520 10517 10514 10511 10508 10505 10502 10499 10495
10445 10448 10451 10454 10459 10465 10468 10474 10481 10491 10506 10518 10523 10524 10520 10516 10514 10508 10509 10523 10532 10533 10536 10542 10544 10540 10535 10534 10535 10536 10536 10539 10551 10561 10553 10538 10535 10542 10548 10552 10554 10556 10558 10559 10559 10558 10559 10560 10559 10557 10556 10555 10553 10551 10550 10549 10549 10548 10546 10545 10544 10542 10541 10539 10537 10536 10534 10532 10530 10528 10526 10523 10521 10519 10516 10513 10510 10507 10504 10501 10498 10495 10492 10489 10486 10482
10435 10439 10442 10444 10450 10457 10463 10470 10477 10490 10509 10517 10514 10511 10506 10503 10500 10492 10495 10520 10535 10528 10524 10529 10531 10527 10521 10517 10518 10521 10524 10534 10550 10553 10535 10521 10528 10539 10543 10544 10545 10544 10545 10545 10544 10544 10544 10546 10546 10545 10545 10543 10541 10539 10538 10537 10537 10536 10534 10534 10533 10532 10531 10529 10527 10525 10523 10521 10519 10516 10514 10512 10509 10507 10504 10501 10498 10494 10491 10488 10485 10482 10479 10476 10472 10469
10429 10433 10435 10438 10447 10455 10459 10464 10473 10488 10502 10506 10503 10500 10495 10492 10489 10482 10493 10525 10534 10517 10509 10513 10512 10508 10504 10502 10506 10512 10520 10531 10541 10537 10523 10519 10527 10532 10533 10534 10533 10532 10532 10531 10530 10529 10529 10529 10531 10531 10530 10530 10529 10528 10527 10527 10526 10525 10523 10523 10522 10521 10519 10517 10515 10513 10511 10509 10506 10504 10501 10499 10496 10494 10491 10488 10485 10482 10478 10475 10472 10469 10466 10462 10458 10455
10421 10424 10428 10434 10442 10447 10450 10457 10468 10482 10493 10495 10493 10489 10484 10481 10480 10484 10503 10521 10515 10499 10494 10491 10488 10491 10494 10495 10501 10509 10515 10520 10525 10525 10520 10518 10520 10521 10521 10522 10521 10520 10520 10518 10517 10516 10516 10516 10517 10518 10518 10518 10517 10516 10516 10515 10514 10513 10511 10510 10509 10507 10506 10504 10503 10501 10498 10496 10494 10491 10489 10486 10483 10481 10478 10475 10472 10468 10465 10462 10459 10455 10452 10448 10445 10441
10416 10418 10423 10429 10434 10438 10444 10450 10459 10474 10486 10487 10484 10481 10477 10475 10480 10491 10499 10494 10484 10482 10482 10476 10475 10483 10488 10491 10497 10502 10504 10507 10512 10514 10511 10508 10509 10511 10510 10509 10510 10509 10509 10508 10507 10506 10506 10506 10506 10505 10505 10505 10504 10503 10502 10501 10501 10500 10498 10497 10496 10494 10493 10491 10490 10488 10485 10483 10481 10478 10476 10473 10470 10467 10464 10461 10458 10455 10452 10448 10445 10441 10438 10434 10430 10427
10409 10409 10413 10421 10427 10431 10435 10440 10453 10475 10485 10479 10472 10471 10471 10471 10474 10476 10472 10465 10466 10472 10473 10472 10474 10476 10478 10485 10490 10491 10495 10497 10498 10499 10498 10497 10498 10499 10499 10499 10500 10499 10499 10499 10497 10496 10495 10494 10494 10493 10492 10491 10491 10490 10490 10489 10489 10487 10486 10485 10483 10482 10480 10478 10476 10474 10472 10470 10468 10465 10463 10461 10458 10455 10451 10448 10444 10441 10438 10434 10431 10427 10423 10419 10416 10412
10396 10400 10409 10419 10422 10423 10427 10438 10455 10470 10470 10460 10455 10456 10458 10460 10459 10456 10454 10456 10460 10464 10465 10468 10469 10468 10472 10478 10480 10481 10484 10485 10484 10486 10486 10486 10487 10488 10489 10489 10488 10487 10487 10487 10486 10485 10484 10482 10481 10479 10479 10479 10479 10479 10478 10477 10476 10474 10473 10471 10470 10468 10467 10465 10463 10461 10459 10457 10455 10453 10450 10448 10444 10441 10438 10434 10431 10427 10424 10421 10417 10413 10409 10405 10401 10397
10394 10402 10407 10410 10410 10410 10419 10433 10444 10449 10449 10447 10447 10446 10447 10450 10450 10450 10450 10450 10450 10453 10457 10460 10461 10461 10465 10468 10469 10471 10471 10471 10473 10475 10475 10476 10477 10478 10477 10477 10476 10475 10474 10473 10473 10472 10471 10471 10470 10468 10468 10468 10467 10467 10466 10464 10462 10461 10459 10457 10456 10454 10453 10451 10449 10448 10446 10444 10442 10439 10437 10434 10430 10427 10424 10420 10417 10414 10410 10407 10403 10399 10395 10391 10387 10382
10389 10392 10392 10394 10396 10400 10411 10424 10433 10436 10439 10441 10440 10438 10438 10440 10441 10442 10441 10440 10441 10444 10447 10448 10450 10451 10453 10456 10460 10461 10460 10461 10463 10463 10464 10466 10465 10465 10466 10465 10463 10462 10461 10460 10460 10460 10460 10460 10459 10458 10458 10457 10456 10455 10453 10450 10449 10447 10445 10444 10442 10440 10439 10437 10436 10435 10432 10430 10428 10425 10423 10420 10416 10413 10410 10406 10403 10399 10396 10392 10388 10384 10380 10376 10372 10367
10380 10383 10382 10385 10388 10395 10408 10421 10425 10425 10426 10427 10427 10428 10428 10429 10430 10430 10430 10431 10432 10434 10436 10438 10439 10440 10442 10446 10450 10450 10450 10452 10452 10452 10453 10453 10452 10453 10453 10452 10451 10450 10449 10449 10449 10449 10449 10449 10448 10446 10446 10444 10443 10441 10439 10437 10436 10434 10432 10431 10429 10428 10426 10425 10422 10420 10418 10416 10414 10411 10408 10405 10402 10399 10396 10392 10389 10385 10381 10377 10373 10370 10366 10362 10358 10353
10374 10373 10372 10376 10382 10390 10403 10411 10411 10409 10411 10414 10417 10419 10420 10420 10421 10420 10419 10420 10422 10424 10426 10429 10430 10431 10433 10436 10437 10440 10441 10441 10441 10441 10441 10440 10440 10440 10440 10439 10439 10439 10438 10438 10438 10437 10437 10436 10435 10434 10433 10432 10430 10428 10426 10425 10423 10421 10420 10419 10417 10415 10413 10411 10408 10406 10404 10401 10399 10396 10393 10390 10388 10385 10381 10378 10374 10370 10366 10363 10359 10356 10352 10348 10344 10340
10362 10360 10363 10370 10375 10382 10393 10400 10400 10400 10401 10404 10406 10407 10407 10406 10406 10406 10407 10410 10412 10413 10416 10419 10421 10423 10425 10425 10427 10429 10430 10429 10430 10430 10429 10429 10429 10428 10427 10427 10427 10426 10427 10427 10427 10426 10425 10424 10422 10421 10420 10419 10417 10415 10414 10412 10411 10410 10408 10406 10403 10401 10399 10396 10394 10391 10389 10386 10383 10381 10379 10376 10373 10370 10367 10363 10359 10356 10353 10349 10346 10342 10339 10335 10331 10327
10351 10354 10360 10362 10365 10375 10386 10391 10388 10385 10384 10388 10391 10390 10389 10390 10392 10395 10398 10401 10403 10405 10407 10409 10412 10413 10414 10415 10416 10417 10418 10418 10419 10418 10419 10419 10418 10417 10417 10417 10416 10416 10416 10415 10415 10414 10413 10411 10410 10409 10407 10406 10405 10403 10402 10401 10398 10396 10394 10392 10389 10387 10385 10382 10380 10376 10374 10371 10369 10367 10365 10362 10359 10356 10353 10349 10347 10343 10340 10336 10333 10329 10326 10322 10319 10315
10345 10350 10352 10351 10355 10366 10373 10371 10368 10367 10369 10374 10377 10377 10377 10380 10383 10385 10389 10392 10394 10396 10398 10399 10400 10401 10402 10403 10404 10405 10406 10406 10406 10407 10408 10408 10407 10407 10407 10407 10406 10406 10405 10404 10403 10402 10400 10399 10398 10396 10395 10394 10393 10392 10390 10388 10385 10383 10380 10378 10376 10373 10371 10368 10365 10363 10360 10358 10355 10353 10350 10347 10345 10342 10339 10336 10334 10330 10327 10323 10319 10316 10313 10310 10306 10303